Weather History for Marathon, FL

Change the Weather History Date:

Sunday, April 20, 2014

  Actual Average Record
Temperature  
Mean Temperature 77 °F 78 °F  
Max Temperature 82 °F 83 °F 93 °F (2013)
Min Temperature 72 °F 72 °F 66 °F (1997)
Degree Days  
Heating Degree Days 0 0  
Month to date heating degree days 0 0  
Since 1 July heating degree days 35 81  
Cooling Degree Days 12 13  
Month to date cooling degree days 284 237  
Year to date cooling degree days 1110 902  
Growing Degree Days 26 (Base 50)    
Moisture  
Dew Point 61 °F    
Average Humidity 60    
Maximum Humidity 68    
Minimum Humidity 51    
Precipitation  
Precipitation 0.00 in 0.10 in 0.01 in (2002)
Month to date precipitation 0.25 1.51  
Year to date precipitation 5.51 7.72  
Snow  
Snow 0.00 in - - ()
Month to date snowfall 0.0  
Since 1 July snowfall 0.0  
Snow Depth 0.00 in    
Sea Level Pressure  
Sea Level Pressure 30.02 in    
Wind  
Wind Speed 10 mph (WNW)    
Max Wind Speed 15 mph    
Max Gust Speed 22 mph    
Visibility 10 miles    
Events      
T = Trace of Precipitation, MM = Missing Value Source: NWS Daily Summary

Daily Weather History Graph

Daily Weather History Graph

Search for Another Location

Airport:

Trip Planner

Search our weather history database for the weather conditions in past years. The results will help you decide how hot, cold, wet, or windy it might be!

Date:

Astronomy

Apr. 20, 2014 Rise Set
Actual Time 6:57 AM EDT 7:48 PM EDT
Civil Twilight 6:34 AM EDT 8:12 PM EDT
Nautical Twilight 6:06 AM EDT 8:40 PM EDT
Astronomical Twilight 5:38 AM EDT 9:08 PM EDT
Moon 12:14 AM EDT (4/20) 11:28 AM EDT (4/20)
Length of Visible Light 13h 38m
Length of Day
12h 51m
Waning Gibbous, 69% of the Moon is Illuminated
Apr 20
Waning Gibbous
Apr 22
Last Quarter
Apr 29
New
May 6
First Quarter
May 14
Full

Hourly Weather History & Observations

Time (EDT) Temp. Heat Index Dew Point Humidity Pressure Visibility Wind Dir Wind Speed Gust Speed Precip Events Conditions
12:53 AM 73.0 °F - 60.1 °F 64% 30.02 in 10.0 mi West 9.2 mph 17.3 mph N/A   Partly Cloudy
1:53 AM 73.0 °F - 62.1 °F 68% 30.00 in 10.0 mi WNW 12.7 mph 20.7 mph N/A   Mostly Cloudy
2:53 AM 73.0 °F - 61.0 °F 66% 29.99 in 10.0 mi West 8.1 mph 17.3 mph N/A   Mostly Cloudy
3:53 AM 72.0 °F - 60.1 °F 66% 29.98 in 10.0 mi WNW 10.4 mph 16.1 mph N/A   Mostly Cloudy
4:53 AM 73.0 °F - 60.1 °F 64% 29.98 in 10.0 mi West 8.1 mph - N/A   Mostly Cloudy
5:53 AM 73.0 °F - 59.0 °F 61% 29.99 in 10.0 mi West 12.7 mph 19.6 mph N/A   Mostly Cloudy
6:53 AM 73.0 °F - 59.0 °F 61% 29.99 in 10.0 mi WNW 11.5 mph 18.4 mph N/A   Overcast
7:53 AM 73.0 °F - 60.1 °F 64% 30.03 in 10.0 mi WNW 9.2 mph 17.3 mph N/A   Mostly Cloudy
8:53 AM 73.9 °F - 59.0 °F 59% 30.04 in 10.0 mi WNW 10.4 mph - N/A   Mostly Cloudy
9:53 AM 78.1 °F - 59.0 °F 52% 30.05 in 10.0 mi West 11.5 mph 17.3 mph N/A   Clear
10:53 AM 79.0 °F - 61.0 °F 54% 30.05 in 10.0 mi WNW 12.7 mph 20.7 mph N/A   Mostly Cloudy
11:53 AM 81.0 °F 81.6 °F 60.1 °F 49% 30.06 in 10.0 mi West 10.4 mph - N/A   Clear
12:53 PM 81.0 °F 81.6 °F 60.1 °F 49% 30.05 in 10.0 mi WNW 13.8 mph 18.4 mph N/A   Clear
1:53 PM 80.1 °F 81.2 °F 62.1 °F 54% 30.04 in 10.0 mi WNW 12.7 mph 18.4 mph N/A   Partly Cloudy
2:53 PM 81.0 °F 81.9 °F 62.1 °F 52% 30.03 in 10.0 mi WNW 10.4 mph 17.3 mph N/A   Partly Cloudy
3:53 PM 79.0 °F - 60.1 °F 52% 30.02 in 10.0 mi West 9.2 mph 18.4 mph N/A   Partly Cloudy
4:53 PM 79.0 °F - 61.0 °F 54% 30.01 in 10.0 mi WNW 10.4 mph 17.3 mph N/A   Partly Cloudy
5:53 PM 77.0 °F - 61.0 °F 58% 30.00 in 10.0 mi WNW 9.2 mph - N/A   Mostly Cloudy
6:45 PM 73.0 °F - 63.0 °F 71% 30.00 in 10.0 mi WNW 8.1 mph - N/A   Overcast
6:53 PM 73.9 °F - 62.1 °F 66% 30.01 in 10.0 mi NW 6.9 mph - N/A   Overcast
7:53 PM 73.0 °F - 61.0 °F 66% 30.00 in 10.0 mi NW 9.2 mph - N/A   Scattered Clouds
8:53 PM 73.0 °F - 62.1 °F 68% 30.01 in 10.0 mi NW 9.2 mph - N/A   Scattered Clouds
9:37 PM 75.0 °F - 62.1 °F 64% 30.03 in 10.0 mi NW 5.8 mph - N/A   Mostly Cloudy
9:44 PM 73.0 °F - 62.1 °F 68% 30.03 in 10.0 mi WNW 5.8 mph - N/A   Mostly Cloudy
9:53 PM 73.0 °F - 62.1 °F 68% 30.03 in 10.0 mi NW 6.9 mph - N/A   Overcast
10:53 PM 73.0 °F - 63.0 °F 71% 30.04 in 10.0 mi NNW 6.9 mph - N/A   Overcast
11:03 PM 73.0 °F - 63.0 °F 71% 30.04 in 10.0 mi NW 9.2 mph - N/A   Overcast
11:53 PM 73.9 °F - 63.0 °F 68% 30.04 in 10.0 mi NW 5.8 mph - N/A   Overcast